Date String (YYYY-MM-DD hh:mm:ss) UTC,Instrument flags,Ambient pressure (hPa),Sample flow (lpm),Bypass flow (lpm),Sample temperature (°C),Ambient temperature (°C),ASC tube jacket temperature (°C),LED temperature (°C),Box temperature (°C),Sample RH (%),Span deviation,Mass concentration (μg/m³),Mass concentration (μg/m³),Mass concentration (μg/m³)
DateTimeUTC,F1_M11,P_M11,Q1_M11,Q2_M11,T1_M11,T2_M11,T3_M11,T4_M11,T5_M11,U1_M11,ZSPAN_M11,X0_M11,X2_M11,X1_M11
2021-10-16 07:00:00,,0832.7,4.99,0.00,26.6,25.7,00.0,35.7,28.4,09.2,0000.0,0007.85,0003.45,0002.37
2021-10-16 07:01:00,,0832.8,5.01,0.00,26.6,25.7,00.0,35.7,28.4,09.0,0000.0,0007.84,0003.46,0002.35
2021-10-16 07:02:00,,0832.8,4.99,0.00,26.6,25.7,00.0,35.7,28.4,08.9,0000.0,0008.63,0003.43,0002.33
2021-10-16 07:03:00,,0832.7,5.01,0.00,26.6,25.7,00.0,35.7,28.4,08.9,0000.0,0008.61,0003.40,0002.30
2021-10-16 07:04:00,,0832.7,5.00,0.00,26.6,25.7,00.0,35.7,28.4,08.9,0000.0,0008.24,0003.37,0002.27
2021-10-16 07:05:00,,0832.8,5.01,0.00,26.6,25.7,00.0,35.7,28.4,08.9,0000.0,0008.13,0003.35,0002.24
2021-10-16 07:06:00,,0832.8,4.98,0.00,26.6,25.7,00.0,35.7,28.4,09.1,0000.0,0008.10,0003.32,0002.21
2021-10-16 07:07:00,,0832.9,5.01,0.00,26.7,25.7,00.0,35.7,28.4,09.1,0000.0,0007.81,0003.26,0002.18
2021-10-16 07:08:00,,0832.9,5.00,0.00,26.7,25.7,00.0,35.7,28.4,09.1,0000.0,0007.63,0003.23,0002.15
2021-10-16 07:09:00,,0832.8,4.99,0.00,26.7,25.7,00.0,35.7,28.4,09.1,0000.0,0007.56,0003.20,0002.11
2021-10-16 07:10:00,,0832.8,5.01,0.00,26.7,25.7,00.0,35.7,28.4,09.2,0000.0,0007.50,0003.16,0002.06
2021-10-16 07:11:00,,0832.8,5.00,0.00,26.7,25.7,00.0,35.7,28.4,09.3,0000.0,0007.78,0003.11,0002.03
2021-10-16 07:12:00,,0832.9,4.99,0.00,26.6,25.7,00.0,35.7,28.4,09.3,0000.0,0007.88,0003.03,0002.01
2021-10-16 07:13:00,,0832.9,5.01,0.00,26.6,25.7,00.0,35.7,28.4,09.3,0000.0,0007.17,0003.05,0002.00
2021-10-16 07:14:00,,0832.9,4.99,0.00,26.6,25.6,00.0,35.7,28.4,09.4,0000.0,0007.31,0003.06,0002.01
2021-10-16 07:15:00,,0833.0,5.01,0.00,26.6,25.6,00.0,35.7,28.4,09.3,0000.0,0007.39,0003.09,0002.02
2021-10-16 07:16:00,,0833.0,5.00,0.00,26.6,25.6,00.0,35.7,28.4,09.1,0000.0,0007.42,0003.13,0002.04
2021-10-16 07:17:00,,0833.0,5.00,0.00,26.6,25.6,00.0,35.7,28.4,09.1,0000.0,0007.67,0003.17,0002.05
2021-10-16 07:18:00,,0832.9,5.00,0.00,26.6,25.6,00.0,35.7,28.4,09.1,0000.0,0007.85,0003.19,0002.06
2021-10-16 07:19:00,,0832.8,5.01,0.00,26.6,25.6,00.0,35.7,28.4,09.0,0000.0,0008.21,0003.24,0002.07
2021-10-16 07:20:00,,0832.9,4.98,0.00,26.6,25.6,00.0,35.7,28.4,08.9,0000.0,0008.16,0003.23,0002.07
2021-10-16 07:21:00,,0832.9,5.01,0.00,26.6,25.6,00.0,35.7,28.4,08.8,0000.0,0009.03,0003.22,0002.07
2021-10-16 07:22:00,,0833.0,5.00,0.00,26.6,25.6,00.0,35.7,28.4,08.9,0000.0,0008.78,0003.18,0002.06
2021-10-16 07:23:00,,0833.1,5.00,0.00,26.6,25.6,00.0,35.7,28.4,08.8,0000.0,0008.45,0003.15,0002.06
2021-10-16 07:24:00,,0833.1,5.01,0.00,26.6,25.6,00.0,35.7,28.4,08.9,0000.0,0008.52,0003.13,0002.04
2021-10-16 07:25:00,,0833.1,5.00,0.00,26.6,25.6,00.0,35.7,28.4,08.9,0000.0,0008.97,0003.16,0002.02
2021-10-16 07:26:00,,0833.1,4.99,0.00,26.6,25.6,00.0,35.7,28.4,08.9,0000.0,0009.20,0003.14,0002.00
2021-10-16 07:27:00,,0833.0,5.00,0.00,26.6,25.6,00.0,35.7,28.4,08.9,0000.0,0009.42,0003.08,0001.98
2021-10-16 07:28:00,,0833.0,5.02,0.00,26.6,25.6,00.0,35.7,28.4,09.0,0000.0,0009.27,0003.05,0001.95
2021-10-16 07:29:00,,0833.0,4.99,0.00,26.6,25.6,00.0,35.7,28.4,09.1,0000.0,0009.07,0002.99,0001.94
2021-10-16 07:30:00,,0833.0,5.01,0.00,26.6,25.6,00.0,35.7,28.4,09.1,0000.0,0009.14,0002.89,0001.93
2021-10-16 07:31:00,,0833.0,5.01,0.00,26.6,25.6,00.0,35.7,28.3,09.0,0000.0,0009.98,0002.84,0001.92
2021-10-16 07:32:00,,0833.0,4.99,0.00,26.6,25.5,00.0,35.7,28.3,09.0,0000.0,0009.34,0002.82,0001.92
2021-10-16 07:33:00,,0833.0,5.00,0.00,26.6,25.6,00.0,35.7,28.3,08.9,0000.0,0009.64,0002.81,0001.92
2021-10-16 07:34:00,,0833.0,5.00,0.00,26.6,25.6,00.0,35.7,28.3,08.9,0000.0,0010.10,0002.83,0001.91
2021-10-16 07:35:00,,0833.0,5.00,0.00,26.6,25.5,00.0,35.7,28.3,08.9,0000.0,0009.94,0002.85,0001.92
2021-10-16 07:36:00,,0833.1,5.00,0.00,26.6,25.5,00.0,35.7,28.3,08.9,0000.0,0009.34,0002.81,0001.93
2021-10-16 07:37:00,,0833.1,5.01,0.00,26.6,25.5,00.0,35.7,28.3,08.9,0000.0,0009.03,0002.79,0001.94
2021-10-16 07:38:00,,0833.0,4.99,0.00,26.6,25.5,00.0,35.7,28.3,08.9,0000.0,0008.80,0002.82,0001.95
2021-10-16 07:39:00,,0833.1,5.00,0.00,26.5,25.5,00.0,35.7,28.3,08.9,0000.0,0008.81,0002.78,0001.96
2021-10-16 07:40:00,,0833.1,5.00,0.00,26.5,25.5,00.0,35.7,28.3,08.9,0000.0,0008.83,0002.81,0001.97
2021-10-16 07:41:00,,0833.1,4.99,0.00,26.5,25.5,00.0,35.7,28.3,08.9,0000.0,0008.67,0002.81,0001.95
2021-10-16 07:42:00,,0833.1,5.01,0.00,26.5,25.4,00.0,35.6,28.2,08.9,0000.0,0007.61,0002.85,0001.96
2021-10-16 07:43:00,,0833.1,4.99,0.00,26.5,25.4,00.0,35.6,28.2,08.9,0000.0,0007.38,0002.90,0001.97
2021-10-16 07:44:00,,0833.1,5.00,0.00,26.5,25.4,00.0,35.6,28.2,08.8,0000.0,0006.78,0002.93,0001.97
2021-10-16 07:45:00,,0833.2,4.99,0.00,26.4,25.4,00.0,35.6,28.2,08.8,0000.0,0005.76,0002.93,0001.97
2021-10-16 07:46:00,,0833.1,5.01,0.00,26.4,25.4,00.0,35.6,28.1,08.8,0000.0,0005.66,0002.91,0001.97
2021-10-16 07:47:00,,0833.1,4.99,0.00,26.4,25.3,00.0,35.6,28.1,08.8,0000.0,0005.51,0002.89,0001.98
2021-10-16 07:48:00,,0833.1,5.01,0.00,26.4,25.3,00.0,35.6,28.1,08.8,0000.0,0005.51,0002.91,0001.98
2021-10-16 07:49:00,,0833.1,5.00,0.00,26.4,25.3,00.0,35.6,28.1,08.8,0000.0,0005.39,0002.89,0001.98
2021-10-16 07:50:00,,0833.1,5.00,0.00,26.4,25.3,00.0,35.5,28.1,08.9,0000.0,0005.60,0002.89,0001.97
2021-10-16 07:51:00,,0833.2,5.01,0.00,26.4,25.3,00.0,35.5,28.1,08.9,0000.0,0005.66,0002.91,0001.97
2021-10-16 07:52:00,,0833.1,4.99,0.00,26.3,25.3,00.0,35.5,28.1,08.9,0000.0,0005.61,0002.88,0001.98
2021-10-16 07:53:00,,0833.1,5.02,0.00,26.3,25.2,00.0,35.5,28.0,08.9,0000.0,0005.72,0002.83,0001.98
2021-10-16 07:54:00,,0833.1,4.99,0.00,26.3,25.2,00.0,35.5,28.0,08.9,0000.0,0005.53,0002.78,0001.97
2021-10-16 07:55:00,,0833.2,4.99,0.00,26.3,25.2,00.0,35.5,28.0,08.9,0000.0,0005.77,0002.79,0001.99
2021-10-16 07:56:00,,0833.1,5.01,0.00,26.3,25.2,00.0,35.5,28.0,08.9,0000.0,0006.54,0002.78,0002.00
2021-10-16 07:57:00,,0833.2,5.00,0.00,26.3,25.2,00.0,35.5,28.0,08.9,0000.0,0006.57,0002.79,0002.00
2021-10-16 07:58:00,,0833.1,4.99,0.00,26.3,25.2,00.0,35.5,28.0,08.9,0000.0,0006.93,0002.81,0001.98
2021-10-16 07:59:00,,0833.2,5.02,0.00,26.3,25.2,00.0,35.4,28.0,08.8,0000.0,0007.20,0002.81,0001.98
